SCP
0 0 0 0 0 0 0 0 0 0 0 0 0 0 0 0 0 0 0 0 0 0 0 0 0 0 0 0 0 0 0 0 0 0 0 0 0 0 0 0 0 0 0
0 0 0 0 0 0 0 0 0 0 0 0 0 0 0 0 0 0 0 0 0 0 0 0 0 0 0 0 0 0 0 0 0 0 0 0 0 0 0 0 0 -0 0
0 0 0 0 0 0 0 0 0 0 0 0 0 0 0 0 0 0 0 0 0 0 0 0 0 0 0 0 0 0 0 0 0 0 0 0 0 0 0 0 0 0 0
0 0 0 0 0 0 0 0 0 0 0 0 0 0 0 0 0 0 0 0 0 0 0 0 0 0 0 0 0 0 0 0 0 0 0 0 0 0 0 0 0 0 0
0 0 0 0 0 0 0 0 0 0 0 0 0 0 0 0 0 0 0 0 0 0 0 0 0 0 0 0 0 0 0 0 0 0 0 0 0 0 0 0 0 0 0
0 0 0 0 0 0 0 0 0 0 0 0 0 0 0 0 0 0 0 0 0 0 0 0 0 0 0 0 0 0 0 0 0 0 -0 -0 0 0 0 0 0 0 0
0 0 0 0 0 0 0 0 0 0 0 0 0 0 0 0 0 0 0 0 0 0 0 0 0 0 0 0 0 0 0 0 0 0 0 0 0 0 0 0 0 0 0
0 0 0 0 0 0 0 0 0 0 0 0 0 0 0 0 0 0 0 0 0 0 0 0 0 0 0 0 0 0 0 0 -0 -0 -0 -0 -0 0 0 0 0 0 0
0 0 0 0 0 0 0 0 0 0 0 0 0 0 0 0 0 0 0 0 0 0 0 0 0 0 0 0 0 -0 -0 -0 -0 -0 -0 -0 -0 -0 -0 -0 -0 0 0
0 0 0 0 0 0 0 0 0 0 0 0 0 0 0 0 0 0 0 0 0 0 0 -0 0 0 0 0 0 0 -0 0 0 0 0 -0 -0 -0 -0 -0 0 0 0
0 0 0 0 0 0 0 0 0 0 0 0 0 0 0 0 0 0 0 0 0 0 0 -0 0 -0 0 0 0 0 0 0 0 0 -0 -0 -0 -0 -0 -0 0 0 0
0 0 0 0 0 0 0 0 0 0 0 0 0 0 0 0 0 0 0 0 0 0 -0 0 0 -0 -0 0 0 0 -0 -0 -0 -0 -0 -0 -0 -0 -0 -0 -0 -0 -0
0 0 0 0 0 0 0 0 0 0 0 0 0 0 0 0 0 0 0 0 0 0 -0 0 0 -0 -0 -0 -0 -0 -0 -0 -0 -0 0 0 0 0 0 0 -0 -0 -0
0 0 0 0 0 0 0 0 0 0 0 0 0 0 0 0 0 0 0 0 0 0 0 -0 0 -0 -0 -0 0 -0 0 0 -0 -0 0 0 0 0 0 0 -0 -0 -0
0 0 0 0 0 0 0 0 0 0 0 0 0 0 0 0 0 0 0 0 0 0 0 0 0 0 0 -0 0 0 0 -0 0 0 0 0 0 0 0 -0 -0 -0 -0
0 0 0 0 0 0 0 0 0 0 0 0 0 0 0 0 0 0 -0 0 0 0 0 0 0 0 0 0 0 0 0 -0 -0 0 0 -0 -0 0 -0 -0 0 0 0
0 0 0 0 0 0 0 0 0 0 0 0 0 0 0 0 0 -0 -0 0 0 0 0 0 0 0 0 0 0 0 0 0 0 0 -0 0 0 -0 -0 0 -0 -0 -0
0 0 0 0 0 0 0 0 0 0 0 0 0 0 0 0 0 0 0 0 0 0 0 0 0 0 0 0 0 0 -0 -0 0 0 0 -0 -0 -0 -0 -0 -0 0 0
0 0 0 0 0 0 0 0 0 0 0 0 0 0 0 0 0 0 0 -0 -0 -0 0 0 0 0 0 0 0 0 0 0 0 0 0 0 0 -0 -0 -0 0 0 0
0 0 0 0 0 0 0 0 0 0 0 0 0 0 0 0 0 0 0 0 -0 -0 -0 0 0 0 0 0 0 0 0 0 0 0 -0 -0 0 0 -0 0 -0 -0 -0
0 0 0 0 0 0 0 0 0 0 0 0 0 0 0 0 0 0 0 0 -0 -0 -0 -0 0 0 0 0 0 0 0 0 0 -0 0 0 -0 -0 -0 -0 -0 -0 -0
0 0 0 0 0 0 0 0 0 0 0 0 0 0 0 0 0 0 0 0 0 0 -0 -0 0 0 0 0 0 0 0 -0 -0 0 -0 -0 -0 -0 -0 -0 -0 -0 -0
0 0 0 0 0 0 0 0 0 0 0 0 0 0 0 0 0 0 0 0 0 0 0 0 0 0 0 0 0 0 0 -0 -0 -0 -0 -0 -0 -0 -0 -0 -0 -0 -0
0 0 0 0 0 0 0 0 0 0 0 0 0 0 0 0 0 0 0 0 0 0 0 0 0 0 0 0 0 0 0 0 0 -0 -0 -0 -0 -0 -0 -0 0 -0 0
0 0 0 0 0 0 0 0 0 0 0 0 0 0 0 0 0 0 0 0 0 0 0 0 0 0 0 0 0 0 0 0 0 -0 -0 -0 -0 -0 -0 -0 0 0 0
0 0 0 0 0 0 0 0 0 0 0 0 0 0 0 0 0 0 0 0 0 0 0 0 0 0 0 0 0 0 0 0 0 -0 -0 -0 -0 -0 -0 -0 -0 0 0
Wind_Speed_500mb
6 8 12 15 20 25 29 35 40 44 46 45 43 42 40 37 36 41 44 45 48 49 51 57 57 56 58 61 62 65 68 68 79 75 69 54 57 72 61 63 74 78 74
5 9 13 16 20 24 28 34 38 42 42 43 43 44 43 42 39 41 45 45 44 51 49 51 57 57 59 58 60 65 66 67 71 75 69 75 66 66 63 67 63 75 81
10 11 13 17 19 23 28 33 39 41 42 45 48 50 49 46 45 41 44 44 48 53 56 60 63 63 64 59 59 60 59 61 64 64 70 64 64 50 47 53 69 64 61
12 11 12 14 17 22 28 33 37 41 45 49 52 53 50 47 44 44 47 49 52 55 60 63 61 60 61 57 55 55 55 58 61 65 68 66 64 62 55 54 47 40 37
12 10 11 13 17 21 27 32 37 41 46 51 55 51 47 43 37 39 43 47 52 59 62 60 58 57 49 53 51 50 53 54 52 48 50 47 45 39 41 46 52 46 43
9 8 11 13 17 21 26 31 35 39 46 52 55 51 41 35 32 34 39 49 56 58 61 58 54 50 45 48 38 41 44 49 53 58 62 66 57 52 49 45 43 48 45
7 6 11 14 17 22 27 32 36 40 45 51 54 52 39 34 32 36 41 47 53 58 56 53 49 41 41 40 35 34 35 42 45 48 54 56 61 57 53 48 41 37 41
4 6 11 17 20 24 28 32 36 40 44 49 53 52 41 35 35 37 39 47 52 52 54 47 40 36 30 24 29 31 36 28 28 37 44 52 54 54 54 53 42 31 28
7 6 12 19 24 27 29 31 34 38 41 44 49 51 45 37 37 37 39 43 47 44 36 34 37 34 25 29 33 34 31 19 27 35 40 44 50 54 50 47 41 35 28
11 13 18 23 27 30 32 33 33 36 40 44 45 47 47 42 38 38 36 38 44 38 31 26 28 28 27 25 29 28 19 23 28 35 38 36 28 27 21 22 25 29 33
17 21 23 26 29 32 34 35 35 36 39 42 44 44 44 44 39 36 36 34 38 35 29 25 23 22 8 11 14 10 18 24 33 29 20 17 9 2 5 6 12 25 35
25 29 32 31 32 37 39 39 39 39 40 41 42 43 43 42 40 37 36 35 28 29 28 24 23 19 15 12 20 24 27 24 20 10 7 7 9 6 7 7 16 25 27
35 38 41 41 37 41 44 45 45 42 42 41 41 42 44 44 42 39 33 33 31 22 24 28 23 15 15 13 11 8 7 8 6 9 12 9 10 11 8 10 11 13 13
49 50 49 48 45 46 50 51 49 46 44 42 40 40 43 42 45 43 35 26 27 22 17 21 22 15 10 13 8 2 4 5 7 10 7 6 8 7 8 13 15 20 21
47 46 52 52 52 54 54 55 53 47 44 43 38 38 41 41 43 44 41 34 25 23 13 13 15 10 5 2 4 6 6 5 6 6 6 9 12 13 16 19 18 24 41
42 44 47 51 52 53 56 56 50 48 45 43 38 36 36 37 40 42 40 33 26 23 17 11 10 5 2 5 6 7 8 8 10 12 15 21 25 24 25 27 36 46 53
44 43 44 45 46 49 51 50 52 46 45 45 41 34 35 34 34 38 39 33 25 23 21 17 13 9 8 7 8 11 13 16 18 23 30 32 34 39 40 44 47 49 55
47 46 49 46 46 48 49 50 50 48 49 46 42 38 34 33 31 32 33 30 21 18 19 20 16 13 12 12 14 17 23 30 35 36 36 36 34 33 36 40 44 47 51
49 52 52 51 50 51 52 54 54 52 50 49 44 41 35 33 29 26 25 21 16 11 12 17 18 18 19 21 25 33 38 40 37 33 31 31 33 32 35 38 38 38 38
57 57 57 58 57 55 55 58 61 60 54 53 48 42 37 36 30 24 19 13 9 3 2 11 18 22 26 33 39 40 38 32 30 32 33 33 33 31 29 28 27 25 23
64 64 63 64 66 65 66 69 71 70 63 55 51 43 37 40 34 27 21 15 7 5 12 14 22 28 34 38 37 32 28 30 33 34 34 33 31 27 26 26 25 24 23
67 67 67 71 71 71 71 71 74 74 71 62 54 46 41 45 40 35 29 24 19 16 18 22 23 27 28 26 24 25 28 31 32 32 32 30 28 25 23 22 23 24 25
69 70 72 77 79 78 76 73 73 73 71 67 59 51 45 49 46 42 37 34 30 27 25 26 26 26 28 28 28 26 25 27 27 26 25 26 24 22 22 21 22 24 26
69 71 73 77 77 79 77 75 70 68 67 69 64 58 49 50 52 48 45 42 40 36 33 31 31 30 30 33 34 34 32 30 30 28 23 19 20 21 21 23 25 26 26
68 68 69 73 75 76 75 71 68 67 66 67 67 63 54 51 56 55 53 50 47 44 41 38 37 38 37 36 36 36 35 33 29 27 24 21 19 21 23 24 25 27 27
64 64 65 67 70 73 76 80 78 70 70 68 67 66 61 54 58 62 59 57 54 51 48 45 44 43 43 43 39 37 35 33 30 27 25 23 20 22 25 26 27 28 31
Wind_Direction_500mb
247 298 322 329 330 328 328 330 331 330 330 328 324 322 322 318 310 305 303 300 296 296 297 298 297 294 287 285 283 279 275 274 275 283 284 283 287 290 266 260 272 275 268
280 308 309 309 313 321 329 332 333 332 329 326 324 319 313 308 303 300 299 299 299 301 301 297 297 298 301 289 281 278 276 275 277 279 286 288 287 291 283 269 275 274 273
264 276 289 299 310 324 332 337 339 337 336 336 331 323 313 304 297 296 300 301 297 296 293 296 297 291 289 296 285 281 278 278 279 278 286 289 287 294 304 278 277 275 278
246 259 282 301 317 330 339 341 341 342 343 340 337 331 324 312 299 299 299 298 296 296 295 298 298 295 287 294 290 283 281 281 282 282 284 285 289 293 287 291 289 274 288
231 260 286 309 324 333 339 340 342 345 344 343 343 340 339 332 320 308 306 305 303 302 302 301 303 301 289 294 282 281 280 284 284 282 289 281 295 296 300 296 286 283 289
222 272 299 316 325 334 337 339 340 343 346 348 347 343 339 338 330 319 314 310 306 305 306 307 305 302 291 296 280 275 272 271 272 275 277 278 280 282 290 297 290 286 291
230 283 310 321 325 330 335 337 338 344 344 348 349 346 337 331 325 322 322 315 313 309 310 308 302 297 297 293 283 277 274 271 266 267 274 279 279 279 287 296 297 284 275
209 300 325 333 328 328 329 334 337 340 342 346 348 348 339 327 322 323 321 322 319 319 310 294 294 302 301 289 292 282 289 282 270 273 278 280 277 277 277 282 288 287 270
198 283 319 325 322 323 325 329 333 334 339 342 345 346 340 329 322 321 320 328 329 326 323 316 292 291 293 288 285 289 291 274 281 286 287 286 284 281 277 271 258 252 236
222 280 305 313 315 317 320 323 326 329 333 339 344 343 341 331 321 321 320 330 336 339 331 337 331 296 276 279 279 282 283 293 292 298 300 295 291 286 269 238 227 234 215
253 278 293 307 317 317 317 318 319 322 326 332 338 341 340 336 326 319 319 328 338 342 335 343 349 348 341 1 328 283 280 293 305 305 298 295 300 249 147 164 184 204 203
260 273 283 293 306 312 313 315 315 315 318 325 332 337 338 337 333 320 318 319 332 338 341 317 323 339 327 298 296 289 287 288 294 278 244 143 106 106 120 163 190 204 206
267 275 280 284 291 303 306 310 309 309 311 316 324 330 335 336 334 328 317 314 317 326 339 331 329 323 310 314 300 301 266 254 231 195 188 136 109 96 101 130 148 167 186
266 274 275 280 287 291 295 298 301 303 303 307 314 322 327 332 331 332 328 315 310 310 326 333 325 304 300 307 295 9 150 186 204 217 183 134 112 99 122 120 128 137 150
266 268 269 275 283 286 287 291 294 295 295 297 302 310 318 328 328 331 331 323 309 302 309 327 328 326 309 31 109 117 125 154 199 193 155 115 106 109 110 116 126 135 130
257 261 269 278 282 285 289 290 290 294 293 290 291 299 309 320 324 327 325 321 303 289 284 286 293 293 206 148 137 136 139 147 150 148 133 120 115 106 100 111 125 125 121
258 264 271 276 281 286 288 290 295 294 294 291 290 288 298 309 317 320 321 317 306 278 263 256 256 238 210 184 165 156 151 144 139 134 130 122 111 106 109 113 115 117 117
259 261 264 268 274 280 285 289 292 294 295 295 290 282 286 295 306 312 319 319 311 283 249 240 233 217 201 182 162 154 144 136 134 133 128 119 115 113 116 116 118 120 121
259 262 265 268 270 274 277 282 287 288 290 294 290 281 276 281 291 299 309 322 321 302 246 221 211 198 184 170 156 148 142 139 138 135 132 128 124 123 123 119 120 123 127
260 264 266 269 270 269 272 276 280 283 286 286 288 284 266 269 275 279 286 299 321 19 177 185 180 174 165 154 149 146 144 145 143 139 134 130 128 129 127 126 128 131 134
265 267 268 268 267 268 268 271 273 273 275 279 282 281 260 256 259 257 260 253 241 160 132 138 144 147 149 149 149 151 152 149 144 143 142 141 138 139 139 138 136 137 140
267 269 271 273 273 271 270 270 270 268 266 267 272 274 261 248 247 246 242 234 219 200 167 153 152 149 152 154 158 159 158 156 152 152 151 147 143 142 139 138 138 139 140
268 269 269 271 273 273 271 269 267 267 262 260 262 265 260 249 241 241 234 229 220 211 204 188 179 178 171 166 163 162 163 159 156 155 156 151 146 146 143 144 146 146 141
271 271 270 269 270 271 269 267 266 266 266 259 255 257 254 250 237 235 230 225 221 213 210 203 191 187 184 177 171 165 163 164 162 157 155 155 155 153 153 155 152 150 150
269 269 267 267 268 267 267 265 263 263 264 261 256 252 248 245 234 229 228 222 219 215 211 208 200 190 187 185 181 175 170 169 169 165 160 159 162 162 159 159 159 156 161
267 268 269 268 267 268 268 265 262 260 259 258 256 251 245 239 234 227 226 222 216 215 209 209 203 195 191 185 182 182 178 174 172 172 170 167 169 169 167 167 164 165 165
Wind_Speed_850mb
6 8 12 15 20 25 29 35 40 44 46 45 43 42 40 37 36 41 44 45 48 49 51 57 57 56 58 61 62 65 68 68 79 75 69 54 57 72 61 63 74 78 74
5 9 13 16 20 24 28 34 38 42 42 43 43 44 43 42 39 41 45 45 44 51 49 51 57 57 59 58 60 65 66 67 71 75 69 75 66 66 63 67 63 75 81
10 11 13 17 19 23 28 33 39 41 42 45 48 50 49 46 45 41 44 44 48 53 56 60 63 63 64 59 59 60 59 61 64 64 70 64 64 50 47 53 69 64 61
12 11 12 14 17 22 28 33 37 41 45 49 52 53 50 47 44 44 47 49 52 55 60 63 61 60 61 57 55 55 55 58 61 65 68 66 64 62 55 54 47 40 37
12 10 11 13 17 21 27 32 37 41 46 51 55 51 47 43 37 39 43 47 52 59 62 60 58 57 49 53 51 50 53 54 52 48 50 47 45 39 41 46 52 46 43
9 8 11 13 17 21 26 31 35 39 46 52 55 51 41 35 32 34 39 49 56 58 61 58 54 50 45 48 38 41 44 49 53 58 62 66 57 52 49 45 43 48 45
7 6 11 14 17 22 27 32 36 40 45 51 54 52 39 34 32 36 41 47 53 58 56 53 49 41 41 40 35 34 35 42 45 48 54 56 61 57 53 48 41 37 41
4 6 11 17 20 24 28 32 36 40 44 49 53 52 41 35 35 37 39 47 52 52 54 47 40 36 30 24 29 31 36 28 28 37 44 52 54 54 54 53 42 31 28
7 6 12 19 24 27 29 31 34 38 41 44 49 51 45 37 37 37 39 43 47 44 36 34 37 34 25 29 33 34 31 19 27 35 40 44 50 54 50 47 41 35 28
11 13 18 23 27 30 32 33 33 36 40 44 45 47 47 42 38 38 36 38 44 38 31 26 28 28 27 25 29 28 19 23 28 35 38 36 28 27 21 22 25 29 33
17 21 23 26 29 32 34 35 35 36 39 42 44 44 44 44 39 36 36 34 38 35 29 25 23 22 8 11 14 10 18 24 33 29 20 17 9 2 5 6 12 25 35
25 29 32 31 32 37 39 39 39 39 40 41 42 43 43 42 40 37 36 35 28 29 28 24 23 19 15 12 20 24 27 24 20 10 7 7 9 6 7 7 16 25 27
35 38 41 41 37 41 44 45 45 42 42 41 41 42 44 44 42 39 33 33 31 22 24 28 23 15 15 13 11 8 7 8 6 9 12 9 10 11 8 10 11 13 13
49 50 49 48 45 46 50 51 49 46 44 42 40 40 43 42 45 43 35 26 27 22 17 21 22 15 10 13 8 2 4 5 7 10 7 6 8 7 8 13 15 20 21
47 46 52 52 52 54 54 55 53 47 44 43 38 38 41 41 43 44 41 34 25 23 13 13 15 10 5 2 4 6 6 5 6 6 6 9 12 13 16 19 18 24 41
42 44 47 51 52 53 56 56 50 48 45 43 38 36 36 37 40 42 40 33 26 23 17 11 10 5 2 5 6 7 8 8 10 12 15 21 25 24 25 27 36 46 53
44 43 44 45 46 49 51 50 52 46 45 45 41 34 35 34 34 38 39 33 25 23 21 17 13 9 8 7 8 11 13 16 18 23 30 32 34 39 40 44 47 49 55
47 46 49 46 46 48 49 50 50 48 49 46 42 38 34 33 31 32 33 30 21 18 19 20 16 13 12 12 14 17 23 30 35 36 36 36 34 33 36 40 44 47 51
49 52 52 51 50 51 52 54 54 52 50 49 44 41 35 33 29 26 25 21 16 11 12 17 18 18 19 21 25 33 38 40 37 33 31 31 33 32 35 38 38 38 38
57 57 57 58 57 55 55 58 61 60 54 53 48 42 37 36 30 24 19 13 9 3 2 11 18 22 26 33 39 40 38 32 30 32 33 33 33 31 29 28 27 25 23
64 64 63 64 66 65 66 69 71 70 63 55 51 43 37 40 34 27 21 15 7 5 12 14 22 28 34 38 37 32 28 30 33 34 34 33 31 27 26 26 25 24 23
67 67 67 71 71 71 71 71 74 74 71 62 54 46 41 45 40 35 29 24 19 16 18 22 23 27 28 26 24 25 28 31 32 32 32 30 28 25 23 22 23 24 25
69 70 72 77 79 78 76 73 73 73 71 67 59 51 45 49 46 42 37 34 30 27 25 26 26 26 28 28 28 26 25 27 27 26 25 26 24 22 22 21 22 24 26
69 71 73 77 77 79 77 75 70 68 67 69 64 58 49 50 52 48 45 42 40 36 33 31 31 30 30 33 34 34 32 30 30 28 23 19 20 21 21 23 25 26 26
68 68 69 73 75 76 75 71 68 67 66 67 67 63 54 51 56 55 53 50 47 44 41 38 37 38 37 36 36 36 35 33 29 27 24 21 19 21 23 24 25 27 27
64 64 65 67 70 73 76 80 78 70 70 68 67 66 61 54 58 62 59 57 54 51 48 45 44 43 43 43 39 37 35 33 30 27 25 23 20 22 25 26 27 28 31
Wind_Direction_850mb
247 298 322 329 330 328 328 330 331 330 330 328 324 322 322 318 310 305 303 300 296 296 297 298 297 294 287 285 283 279 275 274 275 283 284 283 287 290 266 260 272 275 268
280 308 309 309 313 321 329 332 333 332 329 326 324 319 313 308 303 300 299 299 299 301 301 297 297 298 301 289 281 278 276 275 277 279 286 288 287 291 283 269 275 274 273
264 276 289 299 310 324 332 337 339 337 336 336 331 323 313 304 297 296 300 301 297 296 293 296 297 291 289 296 285 281 278 278 279 278 286 289 287 294 304 278 277 275 278
246 259 282 301 317 330 339 341 341 342 343 340 337 331 324 312 299 299 299 298 296 296 295 298 298 295 287 294 290 283 281 281 282 282 284 285 289 293 287 291 289 274 288
231 260 286 309 324 333 339 340 342 345 344 343 343 340 339 332 320 308 306 305 303 302 302 301 303 301 289 294 282 281 280 284 284 282 289 281 295 296 300 296 286 283 289
222 272 299 316 325 334 337 339 340 343 346 348 347 343 339 338 330 319 314 310 306 305 306 307 305 302 291 296 280 275 272 271 272 275 277 278 280 282 290 297 290 286 291
230 283 310 321 325 330 335 337 338 344 344 348 349 346 337 331 325 322 322 315 313 309 310 308 302 297 297 293 283 277 274 271 266 267 274 279 279 279 287 296 297 284 275
209 300 325 333 328 328 329 334 337 340 342 346 348 348 339 327 322 323 321 322 319 319 310 294 294 302 301 289 292 282 289 282 270 273 278 280 277 277 277 282 288 287 270
198 283 319 325 322 323 325 329 333 334 339 342 345 346 340 329 322 321 320 328 329 326 323 316 292 291 293 288 285 289 291 274 281 286 287 286 284 281 277 271 258 252 236
222 280 305 313 315 317 320 323 326 329 333 339 344 343 341 331 321 321 320 330 336 339 331 337 331 296 276 279 279 282 283 293 292 298 300 295 291 286 269 238 227 234 215
253 278 293 307 317 317 317 318 319 322 326 332 338 341 340 336 326 319 319 328 338 342 335 343 349 348 341 1 328 283 280 293 305 305 298 295 300 249 147 164 184 204 203
260 273 283 293 306 312 313 315 315 315 318 325 332 337 338 337 333 320 318 319 332 338 341 317 323 339 327 298 296 289 287 288 294 278 244 143 106 106 120 163 190 204 206
267 275 280 284 291 303 306 310 309 309 311 316 324 330 335 336 334 328 317 314 317 326 339 331 329 323 310 314 300 301 266 254 231 195 188 136 109 96 101 130 148 167 186
266 274 275 280 287 291 295 298 301 303 303 307 314 322 327 332 331 332 328 315 310 310 326 333 325 304 300 307 295 9 150 186 204 217 183 134 112 99 122 120 128 137 150
266 268 269 275 283 286 287 291 294 295 295 297 302 310 318 328 328 331 331 323 309 302 309 327 328 326 309 31 109 117 125 154 199 193 155 115 106 109 110 116 126 135 130
257 261 269 278 282 285 289 290 290 294 293 290 291 299 309 320 324 327 325 321 303 289 284 286 293 293 206 148 137 136 139 147 150 148 133 120 115 106 100 111 125 125 121
258 264 271 276 281 286 288 290 295 294 294 291 290 288 298 309 317 320 321 317 306 278 263 256 256 238 210 184 165 156 151 144 139 134 130 122 111 106 109 113 115 117 117
259 261 264 268 274 280 285 289 292 294 295 295 290 282 286 295 306 312 319 319 311 283 249 240 233 217 201 182 162 154 144 136 134 133 128 119 115 113 116 116 118 120 121
259 262 265 268 270 274 277 282 287 288 290 294 290 281 276 281 291 299 309 322 321 302 246 221 211 198 184 170 156 148 142 139 138 135 132 128 124 123 123 119 120 123 127
260 264 266 269 270 269 272 276 280 283 286 286 288 284 266 269 275 279 286 299 321 19 177 185 180 174 165 154 149 146 144 145 143 139 134 130 128 129 127 126 128 131 134
265 267 268 268 267 268 268 271 273 273 275 279 282 281 260 256 259 257 260 253 241 160 132 138 144 147 149 149 149 151 152 149 144 143 142 141 138 139 139 138 136 137 140
267 269 271 273 273 271 270 270 270 268 266 267 272 274 261 248 247 246 242 234 219 200 167 153 152 149 152 154 158 159 158 156 152 152 151 147 143 142 139 138 138 139 140
268 269 269 271 273 273 271 269 267 267 262 260 262 265 260 249 241 241 234 229 220 211 204 188 179 178 171 166 163 162 163 159 156 155 156 151 146 146 143 144 146 146 141
271 271 270 269 270 271 269 267 266 266 266 259 255 257 254 250 237 235 230 225 221 213 210 203 191 187 184 177 171 165 163 164 162 157 155 155 155 153 153 155 152 150 150
269 269 267 267 268 267 267 265 263 263 264 261 256 252 248 245 234 229 228 222 219 215 211 208 200 190 187 185 181 175 170 169 169 165 160 159 162 162 159 159 159 156 161
267 268 269 268 267 268 268 265 262 260 259 258 256 251 245 239 234 227 226 222 216 215 209 209 203 195 191 185 182 182 178 174 172 172 170 167 169 169 167 167 164 165 165